Location: Unspecified
(48.7170°N, 0.0000°E)
Time: 20:25:50
(UTC+00:00)

ISS - Pass Details

Date: 28 May 2019
Orbit: 407 x 418 km, 51.6° (Epoch: 25 June)

Event Time Altitude Azimuth Distance (km) Brightness Sun altitude
Rises 20:27:55 0° 283° (WNW) 2,354 1.2 -5.7°
Reaches altitude 10° 20:30:03 10° 288° (WNW) 1,493 0.3 -6.0°
Maximum altitude 20:33:20 51° 6° (N) 534 -2.9 -6.4°
Drops below altitude 10° 20:36:35 10° 83° (E) 1,485 -1.3 -6.7°
Enters shadow 20:38:25 - 89° (E) 2,222 -0.5 -7.0°
